{"data":{"norad_id":64058,"epoch":"2026-09-21T17:40:17.083776Z","epoch_age_seconds":88733,"freshness":"FRESH","line1":"1 64058U 25105A   26264.73630884  .00000001  00000+0  88905-4 0  9999","line2":"2 64058  44.9849 312.8031 0009556 121.8068 238.3697 13.99179695 68711","mean_motion":13.99179695,"eccentricity":0.0009556,"inclination_deg":44.9849,"raan_deg":312.8031,"arg_perigee_deg":121.8068,"mean_anomaly_deg":238.3697,"bstar":8.8905e-5,"rev_number":6871,"period_min":102.91744549652,"perigee_km":889.68532678435,"apogee_km":903.58887504602,"semimajor_km":7274.7741009152,"source":"CELESTRAK","updated_at":"2026-09-22T09:00:29.524302Z"}}